Location: Autingues
(50.8400°N, 1.9737°E)
Time: 21:40:48
(UTC+00:00)

Cosmos 1937 Rocket - Pass Details

Date: 15 May 2026
Orbit: 743 x 774 km, 74.0° (Epoch: 10 June)

Event Time Altitude Azimuth Distance (km) Brightness Sun altitude
Rises 22:20:05 0° 337° (NNW) 3,208 8.5 -17.5°
Reaches altitude 10° 22:22:32 10° 343° (NNW) 2,276 7.3 -17.6°
Maximum altitude 22:27:33 52° 60° (ENE) 930 4.0 -17.9°
Enters shadow 22:30:10 26° 124° (SE) 1,426 4.5 -18.0°
